Time,TemperatureF,DewpointF,PressureIn,WindDirection,WindDirectionDegrees,WindSpeedMPH,WindSpeedGustMPH,Humidity,HourlyPrecipIn,Conditions,Clouds,dailyrainin,SoftwareType,DateUTC
2013-01-24 00:02:00,43.0,32.0,-100.00,WNW,298,2.0,4.0,64,-99.99,,,-99.99,,2013-01-24 08:02:00,
2013-01-24 00:12:00,44.0,32.0,-100.00,NE,52,7.0,10.0,61,-99.99,,,-99.99,,2013-01-24 08:12:00,
2013-01-24 00:22:00,44.0,32.0,-100.00,NE,52,7.0,10.0,61,-99.99,,,-99.99,,2013-01-24 08:22:00,
2013-01-24 00:32:00,43.0,31.0,-100.00,ENE,66,4.0,6.0,62,-99.99,,,-99.99,,2013-01-24 08:32:00,
2013-01-24 00:42:00,43.0,31.0,-100.00,ENE,66,4.0,6.0,62,-99.99,,,-99.99,,2013-01-24 08:42:00,
2013-01-24 00:53:00,42.0,31.0,-100.00,ENE,61,0.0,1.0,65,-99.99,,,-99.99,,2013-01-24 08:53:00,
2013-01-24 01:02:00,42.0,31.0,-100.00,ENE,61,0.0,1.0,65,-99.99,,,-99.99,,2013-01-24 09:02:00,
2013-01-24 01:12:00,39.0,31.0,-100.00,West,261,2.0,5.0,72,-99.99,,,-99.99,,2013-01-24 09:12:00,
2013-01-24 01:22:00,39.0,31.0,-100.00,West,261,2.0,5.0,72,-99.99,,,-99.99,,2013-01-24 09:22:00,
2013-01-24 01:32:00,38.0,31.0,-100.00,NNW,336,0.0,2.0,75,-99.99,,,-99.99,,2013-01-24 09:32:00,
2013-01-24 01:42:00,38.0,31.0,-100.00,NNW,336,0.0,2.0,75,-99.99,,,-99.99,,2013-01-24 09:42:00,
2013-01-24 01:53:00,38.0,31.0,-100.00,SSW,203,3.0,7.0,75,-99.99,,,-99.99,,2013-01-24 09:53:00,
2013-01-24 02:02:00,38.0,31.0,-100.00,SSW,203,3.0,7.0,75,-99.99,,,-99.99,,2013-01-24 10:02:00,
2013-01-24 02:12:00,39.0,31.0,-100.00,SSE,165,1.0,2.0,74,-99.99,,,-99.99,,2013-01-24 10:12:00,
2013-01-24 02:22:00,39.0,31.0,-100.00,SSE,165,1.0,2.0,74,-99.99,,,-99.99,,2013-01-24 10:22:00,
2013-01-24 02:33:00,38.0,32.0,-100.00,SSE,161,2.0,4.0,78,-99.99,,,-99.99,,2013-01-24 10:33:00,
2013-01-24 02:42:00,38.0,32.0,-100.00,SSE,161,2.0,4.0,78,-99.99,,,-99.99,,2013-01-24 10:42:00,
2013-01-24 02:53:00,37.0,33.0,-100.00,SE,127,2.0,4.0,84,-99.99,,,-99.99,,2013-01-24 10:53:00,
2013-01-24 03:02:00,37.0,33.0,-100.00,SE,127,2.0,4.0,84,-99.99,,,-99.99,,2013-01-24 11:02:00,
2013-01-24 03:12:00,37.0,33.0,-100.00,South,171,2.0,4.0,87,-99.99,,,-99.99,,2013-01-24 11:12:00,
2013-01-24 03:22:00,37.0,33.0,-100.00,South,171,2.0,4.0,87,-99.99,,,-99.99,,2013-01-24 11:22:00,
2013-01-24 03:32:00,37.0,33.0,-100.00,SSE,148,2.0,3.0,87,-99.99,,,-99.99,,2013-01-24 11:32:00,
2013-01-24 03:42:00,37.0,33.0,-100.00,SSE,148,2.0,3.0,87,-99.99,,,-99.99,,2013-01-24 11:42:00,
2013-01-24 03:53:00,36.0,33.0,-100.00,ESE,119,2.0,4.0,88,-99.99,,,-99.99,,2013-01-24 11:53:00,
2013-01-24 04:03:00,36.0,33.0,-100.00,ESE,119,2.0,4.0,88,-99.99,,,-99.99,,2013-01-24 12:03:00,
2013-01-24 04:12:00,36.0,33.0,-100.00,ESE,119,3.0,4.0,90,-99.99,,,-99.99,,2013-01-24 12:12:00,
2013-01-24 04:22:00,36.0,33.0,-100.00,ESE,119,3.0,4.0,90,-99.99,,,-99.99,,2013-01-24 12:22:00,
2013-01-24 04:33:00,35.0,33.0,-100.00,SE,145,2.0,3.0,92,-99.99,,,-99.99,,2013-01-24 12:33:00,
2013-01-24 04:42:00,35.0,33.0,-100.00,SE,145,2.0,3.0,92,-99.99,,,-99.99,,2013-01-24 12:42:00,
2013-01-24 04:53:00,35.0,33.0,-100.00,South,171,1.0,3.0,93,-99.99,,,-99.99,,2013-01-24 12:53:00,
2013-01-24 05:02:00,35.0,33.0,-100.00,South,171,1.0,3.0,93,-99.99,,,-99.99,,2013-01-24 13:02:00,
2013-01-24 05:12:00,36.0,34.0,-100.00,SSW,196,0.0,2.0,92,-99.99,,,-99.99,,2013-01-24 13:12:00,
2013-01-24 05:22:00,36.0,34.0,-100.00,SSW,196,0.0,2.0,92,-99.99,,,-99.99,,2013-01-24 13:22:00,
2013-01-24 05:32:00,36.0,34.0,-100.00,SSW,196,0.0,2.0,92,-99.99,,,-99.99,,2013-01-24 13:32:00,
2013-01-24 05:53:00,35.0,33.0,-100.00,SE,124,1.0,3.0,93,-99.99,,,-99.99,,2013-01-24 13:53:00,
2013-01-24 06:02:00,35.0,33.0,-100.00,SE,124,1.0,3.0,93,-99.99,,,-99.99,,2013-01-24 14:02:00,
2013-01-24 06:12:00,35.0,33.0,-100.00,SE,127,2.0,4.0,93,-99.99,,,-99.99,,2013-01-24 14:12:00,
2013-01-24 06:22:00,35.0,33.0,-100.00,SE,127,2.0,4.0,93,-99.99,,,-99.99,,2013-01-24 14:22:00,
2013-01-24 06:33:00,35.0,33.0,-100.00,SE,127,2.0,4.0,93,-99.99,,,-99.99,,2013-01-24 14:33:00,
2013-01-24 06:43:00,35.0,33.0,-100.00,SE,127,2.0,4.0,93,-99.99,,,-99.99,,2013-01-24 14:43:00,
2013-01-24 06:54:00,35.0,33.0,-100.00,SE,126,2.0,4.0,94,-99.99,,,-99.99,,2013-01-24 14:54:00,
2013-01-24 07:03:00,35.0,33.0,-100.00,SE,126,2.0,4.0,94,-99.99,,,-99.99,,2013-01-24 15:03:00,
2013-01-24 07:12:00,34.0,33.0,-100.00,SSE,148,2.0,4.0,94,-99.99,,,-99.99,,2013-01-24 15:12:00,
2013-01-24 07:22:00,34.0,33.0,-100.00,SSE,148,2.0,4.0,94,-99.99,,,-99.99,,2013-01-24 15:22:00,
2013-01-24 07:33:00,35.0,34.0,-100.00,South,176,2.0,3.0,93,-99.99,,,-99.99,,2013-01-24 15:33:00,
2013-01-24 07:42:00,35.0,34.0,-100.00,South,176,2.0,3.0,93,-99.99,,,-99.99,,2013-01-24 15:42:00,
2013-01-24 07:53:00,35.0,33.0,-100.00,West,271,1.0,2.0,92,-99.99,,,-99.99,,2013-01-24 15:53:00,
2013-01-24 08:02:00,35.0,33.0,-100.00,West,271,1.0,2.0,92,-99.99,,,-99.99,,2013-01-24 16:02:00,
2013-01-24 08:12:00,35.0,33.0,-100.00,West,260,0.0,0.0,93,-99.99,,,-99.99,,2013-01-24 16:12:00,
2013-01-24 08:22:00,35.0,33.0,-100.00,West,260,0.0,0.0,93,-99.99,,,-99.99,,2013-01-24 16:22:00,
2013-01-24 08:33:00,35.0,33.0,-100.00,SSE,158,0.0,0.0,92,-99.99,,,-99.99,,2013-01-24 16:33:00,
2013-01-24 08:42:00,35.0,33.0,-100.00,SSE,158,0.0,0.0,92,-99.99,,,-99.99,,2013-01-24 16:42:00,
2013-01-24 09:01:00,36.0,34.0,-100.00,East,96,1.0,3.0,92,-99.99,,,-99.99,,2013-01-24 17:01:00,
2013-01-24 09:11:00,37.0,34.0,-100.00,ESE,114,1.0,3.0,91,-99.99,,,-99.99,,2013-01-24 17:11:00,
2013-01-24 09:21:00,37.0,34.0,-100.00,ESE,114,1.0,3.0,91,-99.99,,,-99.99,,2013-01-24 17:21:00,
2013-01-24 09:32:00,38.0,35.0,-100.00,ESE,104,1.0,2.0,88,-99.99,,,-99.99,,2013-01-24 17:32:00,
2013-01-24 09:42:00,38.0,35.0,-100.00,ESE,104,1.0,2.0,88,-99.99,,,-99.99,,2013-01-24 17:42:00,
2013-01-24 09:52:00,39.0,34.0,-100.00,WSW,250,1.0,2.0,83,-99.99,,,-99.99,,2013-01-24 17:52:00,
2013-01-24 10:02:00,39.0,34.0,-100.00,WSW,250,1.0,2.0,83,-99.99,,,-99.99,,2013-01-24 18:02:00,
2013-01-24 10:12:00,39.0,34.0,-100.00,SW,219,0.0,2.0,83,-99.99,,,-99.99,,2013-01-24 18:12:00,
2013-01-24 10:22:00,39.0,34.0,-100.00,SW,219,0.0,2.0,83,-99.99,,,-99.99,,2013-01-24 18:22:00,
2013-01-24 10:32:00,40.0,35.0,-100.00,WSW,240,1.0,3.0,83,-99.99,,,-99.99,,2013-01-24 18:32:00,
2013-01-24 10:42:00,40.0,35.0,-100.00,WSW,240,1.0,3.0,83,-99.99,,,-99.99,,2013-01-24 18:42:00,
2013-01-24 10:53:00,40.0,35.0,-100.00,WSW,246,4.0,6.0,84,-99.99,,,-99.99,,2013-01-24 18:53:00,
2013-01-24 11:01:00,40.0,35.0,-100.00,WSW,246,4.0,6.0,84,-99.99,,,-99.99,,2013-01-24 19:01:00,
2013-01-24 11:12:00,39.0,36.0,-100.00,WSW,248,3.0,4.0,86,-99.99,,,-99.99,,2013-01-24 19:12:00,
2013-01-24 11:21:00,39.0,36.0,-100.00,WSW,248,3.0,4.0,86,-99.99,,,-99.99,,2013-01-24 19:21:00,
2013-01-24 11:32:00,39.0,36.0,-100.00,SW,223,2.0,4.0,87,-99.99,,,-99.99,,2013-01-24 19:32:00,
2013-01-24 11:42:00,39.0,36.0,-100.00,SW,223,2.0,4.0,87,-99.99,,,-99.99,,2013-01-24 19:42:00,
2013-01-24 11:52:00,40.0,36.0,-100.00,SSW,200,1.0,2.0,84,-99.99,,,-99.99,,2013-01-24 19:52:00,
2013-01-24 12:01:00,40.0,36.0,-100.00,SSW,200,1.0,2.0,84,-99.99,,,-99.99,,2013-01-24 20:01:00,
2013-01-24 12:11:00,41.0,36.0,-100.00,WNW,292,1.0,3.0,82,-99.99,,,-99.99,,2013-01-24 20:11:00,
2013-01-24 12:22:00,41.0,36.0,-100.00,WNW,292,1.0,3.0,82,-99.99,,,-99.99,,2013-01-24 20:22:00,
2013-01-24 12:32:00,41.0,36.0,-100.00,North,357,2.0,5.0,80,-99.99,,,-99.99,,2013-01-24 20:32:00,
2013-01-24 12:42:00,41.0,36.0,-100.00,North,357,2.0,5.0,80,-99.99,,,-99.99,,2013-01-24 20:42:00,
2013-01-24 12:52:00,43.0,37.0,-100.00,NW,323,2.0,4.0,79,-99.99,,,-99.99,,2013-01-24 20:52:00,
2013-01-24 13:02:00,43.0,37.0,-100.00,NW,323,2.0,4.0,79,-99.99,,,-99.99,,2013-01-24 21:02:00,
2013-01-24 13:12:00,43.0,36.0,-100.00,NW,313,3.0,6.0,76,-99.99,,,-99.99,,2013-01-24 21:12:00,
2013-01-24 13:22:00,43.0,36.0,-100.00,NW,313,3.0,6.0,76,-99.99,,,-99.99,,2013-01-24 21:22:00,
2013-01-24 13:32:00,42.0,35.0,-100.00,West,278,3.0,5.0,74,-99.99,,,-99.99,,2013-01-24 21:32:00,
2013-01-24 13:42:00,42.0,35.0,-100.00,West,278,3.0,5.0,74,-99.99,,,-99.99,,2013-01-24 21:42:00,
2013-01-24 13:53:00,42.0,35.0,-100.00,West,267,3.0,5.0,75,-99.99,,,-99.99,,2013-01-24 21:53:00,
2013-01-24 14:02:00,42.0,35.0,-100.00,West,267,3.0,5.0,75,-99.99,,,-99.99,,2013-01-24 22:02:00,
2013-01-24 14:12:00,43.0,35.0,-100.00,West,263,3.0,5.0,74,-99.99,,,-99.99,,2013-01-24 22:12:00,
2013-01-24 14:22:00,43.0,35.0,-100.00,West,263,3.0,5.0,74,-99.99,,,-99.99,,2013-01-24 22:22:00,
2013-01-24 14:32:00,42.0,35.0,-100.00,West,263,2.0,4.0,75,-99.99,,,-99.99,,2013-01-24 22:32:00,
2013-01-24 14:42:00,42.0,35.0,-100.00,West,263,2.0,4.0,75,-99.99,,,-99.99,,2013-01-24 22:42:00,
2013-01-24 14:53:00,42.0,35.0,-100.00,WSW,257,4.0,5.0,77,-99.99,,,-99.99,,2013-01-24 22:53:00,
2013-01-24 15:02:00,42.0,35.0,-100.00,WSW,257,4.0,5.0,77,-99.99,,,-99.99,,2013-01-24 23:02:00,
2013-01-24 15:11:00,41.0,36.0,-100.00,West,261,3.0,4.0,82,-99.99,,,-99.99,,2013-01-24 23:11:00,
2013-01-24 15:21:00,41.0,36.0,-100.00,West,261,3.0,4.0,82,-99.99,,,-99.99,,2013-01-24 23:21:00,
2013-01-24 15:32:00,41.0,38.0,-100.00,West,263,2.0,4.0,86,-99.99,,,-99.99,,2013-01-24 23:32:00,
2013-01-24 15:42:00,41.0,38.0,-100.00,West,263,2.0,4.0,86,-99.99,,,-99.99,,2013-01-24 23:42:00,
2013-01-24 15:52:00,41.0,38.0,-100.00,WSW,243,1.0,2.0,88,-99.99,,,-99.99,,2013-01-24 23:52:00,
2013-01-24 16:01:00,41.0,38.0,-100.00,WSW,243,1.0,2.0,88,-99.99,,,-99.99,,2013-01-25 00:01:00,
2013-01-24 16:12:00,41.0,38.0,-100.00,West,268,1.0,2.0,90,-99.99,,,-99.99,,2013-01-25 00:12:00,
2013-01-24 16:22:00,41.0,38.0,-100.00,West,268,1.0,2.0,90,-99.99,,,-99.99,,2013-01-25 00:22:00,
2013-01-24 16:32:00,40.0,37.0,-100.00,West,260,1.0,2.0,89,-99.99,,,-99.99,,2013-01-25 00:32:00,
2013-01-24 16:41:00,40.0,37.0,-100.00,West,260,1.0,2.0,89,-99.99,,,-99.99,,2013-01-25 00:41:00,
2013-01-24 16:52:00,40.0,38.0,-100.00,West,263,1.0,2.0,91,-99.99,,,-99.99,,2013-01-25 00:52:00,
2013-01-24 17:01:00,40.0,38.0,-100.00,West,263,1.0,2.0,91,-99.99,,,-99.99,,2013-01-25 01:01:00,
2013-01-24 17:12:00,40.0,37.0,-100.00,WSW,256,0.0,1.0,91,-99.99,,,-99.99,,2013-01-25 01:12:00,
2013-01-24 17:21:00,40.0,37.0,-100.00,WSW,256,0.0,1.0,91,-99.99,,,-99.99,,2013-01-25 01:21:00,
2013-01-24 17:31:00,39.0,37.0,-100.00,SSW,205,1.0,2.0,93,-99.99,,,-99.99,,2013-01-25 01:31:00,
2013-01-24 17:42:00,39.0,37.0,-100.00,SSW,205,1.0,2.0,93,-99.99,,,-99.99,,2013-01-25 01:42:00,
2013-01-24 17:52:00,39.0,37.0,-100.00,SW,236,0.0,2.0,93,-99.99,,,-99.99,,2013-01-25 01:52:00,
2013-01-24 18:02:00,39.0,37.0,-100.00,SW,236,0.0,2.0,93,-99.99,,,-99.99,,2013-01-25 02:02:00,
2013-01-24 18:11:00,39.0,38.0,-100.00,NNE,14,0.0,2.0,93,-99.99,,,-99.99,,2013-01-25 02:11:00,
2013-01-24 18:22:00,39.0,38.0,-100.00,NNE,14,0.0,2.0,93,-99.99,,,-99.99,,2013-01-25 02:22:00,
2013-01-24 18:32:00,39.0,37.0,-100.00,NE,44,0.0,2.0,94,-99.99,,,-99.99,,2013-01-25 02:32:00,
2013-01-24 18:42:00,39.0,37.0,-100.00,NE,44,0.0,2.0,94,-99.99,,,-99.99,,2013-01-25 02:42:00,
2013-01-24 18:52:00,38.0,37.0,-100.00,NNE,18,1.0,2.0,95,-99.99,,,-99.99,,2013-01-25 02:52:00,
2013-01-24 19:02:00,38.0,37.0,-100.00,NNE,18,1.0,2.0,95,-99.99,,,-99.99,,2013-01-25 03:02:00,
2013-01-24 19:12:00,38.0,37.0,-100.00,NNW,339,1.0,3.0,95,-99.99,,,-99.99,,2013-01-25 03:12:00,
2013-01-24 19:21:00,38.0,37.0,-100.00,NNW,339,1.0,3.0,95,-99.99,,,-99.99,,2013-01-25 03:21:00,
2013-01-24 19:22:00,37.0,36.0,-100.00,ESE,113,0.0,2.0,96,-99.99,,,-99.99,,2013-01-25 03:22:00,
2013-01-24 19:32:00,38.0,37.0,-100.00,NE,49,1.0,3.0,95,-99.99,,,-99.99,,2013-01-25 03:32:00,
2013-01-24 19:41:00,38.0,37.0,-100.00,NE,49,1.0,3.0,95,-99.99,,,-99.99,,2013-01-25 03:41:00,
2013-01-24 19:52:00,37.0,36.0,-100.00,ESE,113,0.0,2.0,96,-99.99,,,-99.99,,2013-01-25 03:52:00,
2013-01-24 20:02:00,37.0,36.0,-100.00,ESE,113,0.0,2.0,96,-99.99,,,-99.99,,2013-01-25 04:02:00,
2013-01-24 20:12:00,37.0,36.0,-100.00,ESE,113,0.0,2.0,96,-99.99,,,-99.99,,2013-01-25 04:12:00,
2013-01-24 21:03:00,36.0,35.0,-100.00,SSW,200,0.0,0.0,97,-99.99,,,-99.99,,2013-01-25 05:03:00,
2013-01-24 21:12:00,36.0,35.0,-100.00,SSE,157,0.0,1.0,98,-99.99,,,-99.99,,2013-01-25 05:12:00,
2013-01-24 21:22:00,36.0,35.0,-100.00,SSE,157,0.0,1.0,98,-99.99,,,-99.99,,2013-01-25 05:22:00,
2013-01-24 21:32:00,36.0,35.0,-100.00,ESE,114,1.0,3.0,98,-99.99,,,-99.99,,2013-01-25 05:32:00,
2013-01-24 21:42:00,36.0,35.0,-100.00,ESE,114,1.0,3.0,98,-99.99,,,-99.99,,2013-01-25 05:42:00,
2013-01-24 21:52:00,36.0,36.0,-100.00,ESE,104,1.0,3.0,98,-99.99,,,-99.99,,2013-01-25 05:52:00,
2013-01-24 22:02:00,36.0,36.0,-100.00,ESE,104,1.0,3.0,98,-99.99,,,-99.99,,2013-01-25 06:02:00,
2013-01-24 22:11:00,36.0,35.0,-100.00,ESE,114,2.0,3.0,98,-99.99,,,-99.99,,2013-01-25 06:11:00,
2013-01-24 22:21:00,36.0,35.0,-100.00,ESE,114,2.0,3.0,98,-99.99,,,-99.99,,2013-01-25 06:21:00,
2013-01-24 22:31:00,35.0,34.0,-100.00,South,188,0.0,0.0,98,-99.99,,,-99.99,,2013-01-25 06:31:00,
2013-01-24 22:41:00,35.0,34.0,-100.00,South,188,0.0,0.0,98,-99.99,,,-99.99,,2013-01-25 06:41:00,
2013-01-24 22:52:00,35.0,35.0,-100.00,NNW,329,0.0,2.0,99,-99.99,,,-99.99,,2013-01-25 06:52:00,
2013-01-24 23:01:00,35.0,35.0,-100.00,NNW,329,0.0,2.0,99,-99.99,,,-99.99,,2013-01-25 07:01:00,
2013-01-24 23:11:00,34.0,34.0,-100.00,ENE,69,1.0,2.0,99,-99.99,,,-99.99,,2013-01-25 07:11:00,
2013-01-24 23:21:00,34.0,34.0,-100.00,ENE,69,1.0,2.0,99,-99.99,,,-99.99,,2013-01-25 07:21:00,
2013-01-24 23:31:00,34.0,33.0,-100.00,ESE,102,2.0,4.0,99,-99.99,,,-99.99,,2013-01-25 07:31:00,
2013-01-24 23:41:00,34.0,33.0,-100.00,ESE,102,2.0,4.0,99,-99.99,,,-99.99,,2013-01-25 07:41:00,
2013-01-24 23:52:00,33.0,33.0,-100.00,East,93,1.0,2.0,99,-99.99,,,-99.99,,2013-01-25 07:52:00,